www.pogodaiklimat.ru

Погода и климат >> Архив погоды >> Казахстан >> Форт-Шевченко


ПОГОДА в Форте-Шевченко

  • Прогноз погоды в Форте-Шевченко
  • Монитор погоды в Форте-Шевченко
  • Климат города

АРХИВ ПОГОДЫ в Форте-Шевченко

Время (UTC), дата Ветер
(напр.,м/с)
 
Видим.   Явления Облачность Т
(С)
Тd
(С)
f
(%)
Тe
(С)
Тes
(С)
Комфортность P
(гПа)
Po
(гПа)
Тmin
(С)
Tmax
(С)
R
(мм)
R24
(мм)
S
(см)
00 14.11 В 8 10 км 10/0
[Ac As]
-1.1 -12.0 43 -8 -8 1034.7 1037.7
03 14.11 В 6 10 км 10/0
[Ac As]
-1.8 -12.2 45 -8 -8 1034.3 1037.4
06 14.11 В 5 10 км 4/0
[Ac trans]
+0.7 -15.4 29 -4 -3 1034.6 1037.6 -1.9
09 14.11 В 6 10 км 3/0
[Ac trans]
+4.8 -14.9 22 +1 +2 1033.3 1036.3
12 14.11 СВ 6 10 км 4/0
[Ci sp]
+3.4 -10.9 34 -1 -1 1032.3 1035.3
15 14.11 В 5 10 км 6/0
[Ac trans]
-0.5 -8.0 57 -6 -6 1031.8 1034.8 +5.2
18 14.11 В 7 10 км 3/0
[Ac trans]
-0.9 -8.3 57 -8 -8 1031.3 1034.3 +5.2
21 14.11 В 8 10 км 3/0
[Ac trans]
-0.9 -13.3 38 -8 -8 1030.6 1033.6
00 15.11 В 3 10 км 5/0
[Ac trans]
-0.8 -15.0 33 -5 -5 1029.6 1032.6
03 15.11 В 3 10 км 4/0
[Ac trans]
-0.2 -14.9 32 -4 -4 1029.3 1032.3
06 15.11 В 5 10 км 4/0
[Ac trans]
+2.5 -17.2 22 -2 -1 1029.5 1032.5 -1.2
09 15.11 В 7 10 км 4/0
[Ac trans]
+8.2 -19.6 12 +5 +6 1027.6 1030.6
12 15.11 ЮВ 6 10 км 6/0
[Ac trans]
+5.5 -10.0 32 +2 +2 1027.3 1030.3
15 15.11 В 7 10 км 6/0
[Ac trans]
+3.1 -7.8 45 -2 -2 1027.8 1030.8 +9.0
18 15.11 В 6 10 км 8/0
[Ac trans]
+3.2 -7.6 45 -2 -2 1027.7 1030.7 +9.0
21 15.11 В 7 10 км 8/0
[Ac trans]
+3.5 -12.5 30 -1 -1 1027.7 1030.7
00 16.11 В 3 10 км 8/0
[Ac trans]
+3.8 -10.6 34 +1 +1 1028.4 1031.4
03 16.11 В 3 10 км 8/0
[Ac trans]
+2.7 -9.0 42 -1 -1 1028.0 1031.0
06 16.11 В 2 10 км 10/0
[Ac As]
+2.8 -8.3 44 +1 +1 1028.8 1031.8 +2.5
09 16.11 В 4 10 км 9/0
[Ac trans]
+9.0 -9.0 27 +7 +8 1028.4 1031.3
12 16.11 В 6 10 км 8/0
[Ci sp]
+5.5 -7.9 37 +1 +2 1027.9 1030.9
15 16.11 В 8 10 км 10/0
[Ac As]
+3.4 -6.9 47 -2 -2 1027.8 1030.8 +9.1
18 16.11 ЮВ 8 10 км 8/0
[Ac trans]
+1.4 -5.7 59 -5 -5 1028.2 1031.2 +9.1
21 16.11 В 5 10 км 6/0
[Ac trans]
+2.7 -7.1 48 -2 -2 1028.3 1031.3
00 17.11 СВ 6 10 км 4/0
[Ac trans]
+2.8 -6.9 49 -2 -2 1027.7 1030.7
03 17.11 СВ 3 10 км 6/0
[Ac trans]
+2.0 -6.4 54 -2 -2 1027.0 1030.0
06 17.11 СВ 5 10 км 6/0
[Ac trans]
+2.6 -6.4 51 -2 -2 1027.9 1030.9 +1.2
09 17.11 СВ 4 10 км 6/0
[Ac trans]
+3.2 -5.5 53 -1 +1 1027.1 1030.1
12 17.11 В 7 10 км 8/0
[Ac trans]
+3.9 -8.3 41 -1 -1 1026.2 1029.2
15 17.11 В 7 10 км 8/0
[Ac trans]
+3.7 -8.2 41 -1 -1 1026.0 1029.0 +4.1
18 17.11 С 1 10 км 10/0
[Ac As]
+4.1 -8.0 41 +4 +4 1026.8 1029.8 +4.1
21 17.11 ЮЗ 1 10 км 10/0
[Ac As]
+4.7 -7.0 42 +4 +4 1025.5 1028.1
00 18.11 С 1 10 км 10/0
[Ac As]
+5.0 -6.1 44 +4 +4 1024.8 1027.8
03 18.11 ЮВ 3 10 км 10/0
[Ac As]
+5.3 -6.9 41 +3 +3 1023.9 1026.9
06 18.11 ЮВ 3 10 км 9/0
[Ac trans]
+6.2 -3.4 50 +4 +4 1023.8 1026.8 +3.6
09 18.11 ЮВ 2 10 км 10/0
[Ac As]
+8.3 -2.2 48 +7 +8 1022.9 1025.9
12 18.11 С 1 10 км в посл. час дождь 10/10 300 м
[Frnb Ns]
+7.1 -0.0 61 +7 +7 1022.4 1025.4
15 18.11 С 2 10 км слабый дождь 10/10 300 м
[Frnb Ns]
+5.1 +1.6 78 +3 +3 1023.0 1026.0 +8.5
18 18.11 С 5 10 км {дождь} 10/10 300 м
[Frnb Ns]
+2.9 -0.1 81 -2 -2 1023.5 1026.5 +8.5 1
21 18.11 С 2 10 км 10/10 600 м
[Sc]
+3.0 +0.3 82 0 0 1023.9 1026.9
00 19.11 С 4 10 км 8/0
[Ac trans]
+2.8 -2.7 67 -2 -2 1024.1 1027.1
03 19.11 С 4 10 км 8/0
[Ac trans]
+2.2 -1.8 75 -3 -3 1024.3 1027.3
06 19.11 С 3 10 км 8/0
[Ac trans]
+2.0 -2.0 75 -2 -1 1026.0 1029.0 +1.9 0.0
09 19.11 С 3 10 км 10/0
[Ac As]
+2.6 -2.6 69 -1 -0 1026.1 1029.1
12 19.11 СВ 4 10 км 4/0
[Ac trans]
+3.0 -1.8 71 -1 -1 1026.1 1029.1
15 19.11 СВ 2 10 км 3/0
[Ac trans]
+1.6 -1.9 78 -2 -2 1026.6 1029.6 +3.2
18 19.11 В 4 10 км 3/0
[Ac trans]
+1.1 -2.7 76 -4 -4 1026.8 1029.8 +3.2
21 19.11 В 1 10 км 3/0
[Ac trans]
+1.8 -5.9 57 +1 +1 1025.6 1028.6
00 20.11 ЮВ 1 10 км 3/0
[Ac trans]
+0.4 -6.2 61 -1 -1 1024.8 1027.8
03 20.11 ЮВ 3 10 км ясно +1.2 -2.6 76 -3 -3 1024.0 1027.0
06 20.11 ЮВ 3 10 км 3/0
[Ci sp]
+3.8 -1.8 67 0 +2 1023.7 1026.7 +0.2
09 20.11 Ю 5 10 км 10/0
[Ac As]
+9.4 +5.1 74 +6 +7 1022.0 1024.9
12 20.11 ЮВ 3 10 км 10/0
[Ac As]
+9.4 +5.5 77 +7 +7 1020.6 1023.5
15 20.11 Ю 4 10 км 10/0
[Ac As]
+7.3 +3.6 77 +4 +4 1019.6 1022.5 +9.6
18 20.11 ЮВ 5 10 км 10/0
[Ac As]
+8.8 +4.0 72 +5 +5 1017.2 1020.1 +9.6
21 20.11 ЮВ 4 10 км 10/0
[Ac As]
+8.3 +5.0 80 +5 +5 1015.4 1018.3

 

Местоположение метеостанции Форт-Шевченко (Мангистауская область, Казахстан): широта 44.55 долгота 50.25 высота над уровнем моря -25 м.

В архиве по умолчанию представлена погода в Форте-Шевченко за последнюю неделю. Архивные данные за месяц целиком и за предыдущие месяцы, начиная с января 2011 года, Вы можете получить, выбрав интересующий диапазон дат из раскрывающегося списка и нажав кнопку "Ввод!".


*Определитесь, кто Вы:
робот инопланетянин человек

Внимание! Время в таблицах - всемирное. Для получения местного времени необходимо прибавить поправку, которая в Форте-Шевченко равна 5 ч.

Смотрите также архив погоды в соседних городах и на ближайших метеорологических станциях:

Погода на Кулалы Острове (Мангистауская область, Казахстан) (54 км)
Погода в Актау (Мангистауская область, Казахстан) (127 км)
Погода в Кызане (Мангистауская область, Казахстан) (138 км)
Погода в Тущыбеке (Мангистауская область, Казахстан) (142 км)
Погода в Жетыбае (Мангистауская область, Казахстан) (183 км)
Погода на Острове Тюлений (Дагестан, Россия) (220 км)
Погода в Зеленге (Астраханская область, Россия) (222 км)
Погода в Ганюшкино (Атырауская область, Казахстан) (240 км)
Погода в Лагани (Калмыкия, Россия) (247 км)
Погода в Жанаозене (Мангистауская область, Казахстан) (247 км)

Пояснения к столбцам:

Ветер - указаны скорость ветра в м/с - средняя за 10 мин, порывы в срок и между сроками (в фигурных скобках) и направление, откуда дует ветер: С - северный, СВ - северо-восточный, В - восточный, ЮВ - юго-восточный, Ю - южный, ЮЗ - юго-западный, З - западный, СЗ - северо-западный.
Видимость - горизонтальная дальность видимости в метрах или километрах. При видимости от 1 до 10 км при отсутствии осадков обычно наблюдается дымка, при ухудшении видимости до 1 км и менее - туман. В сухую погоду видимость может ухудшаться дымом, пылью или мглою.
Явления - указаны атмосферные явления, наблюдавшиеся в срок или в последний час перед сроком; фигурными скобками обозначены явления, наблюдавшиеся между сроками (за 1-3 часа до срока); квадратными скобками обозначены град или гололедные отложения с указанием их диаметра в мм.
Облачность - указаны через наклонную черту общая и нижняя облачность в баллах и высота нижней границы облаков в метрах; квадратными скобками обозначены формы облаков: Ci - перистые, Cs - перисто-слоистые, Cc - перисто-кучевые, Ac - высококучевые, As - высокослоистые, Sc - слоисто-кучевые, Ns - слоисто-дождевые, Cu - кучевые, Cb - кучево-дождевые. Подробнее классификацию облаков см. в Атласе облаков (PDF).
T - Температура воздуха - температура, измеренная на высоте 2 м над землей.
Td - Температура точки росы - температура, при понижении до которой содержащийся в воздухе водяной пар достигнет насыщения.
f - Относительная влажность воздуха - влажноcть воздуха, измеренная на высоте 2 м над землей.
Te - Эффективная температура - температура, которую ощущает одетый по сезону человек в тени. Характеристика душности погоды. При расчете учитывается влияние влажности воздуха и скорости ветра на теплоощущения человека.
Tes - Эффективная температура на солнце - температура, которую ощущает человек, с поправкой на солнечный нагрев. Характеристика знойности погоды. Зависит от высоты солнца над горизонтом, облачности и скорости ветра. Ночью, в пасмурную погоду, а также при ветре 12 м/с и более поправка равна нулю.
P - Атмосферное давление - приведенное к уровню моря атмосферное давление.
Po - Атмосферное давление - измеренное на уровне метеостанции атмосферное давление.
Tmin - Минимальная температура - минимум температуры воздуха на высоте 2 м над землей.
Tmax - Максимальная температура - максимум температуры воздуха на высоте 2 м над землей.
R - Количество осадков - Количество выпавших осадков за период времени, мм. При наведении курсора мыши на число - период времени, за который выпало указанное количество осадков.
R24 - Количество осадков - Количество выпавших осадков за 24 часа, мм.
S - Снежный покров - Высота снежного покрова, см. При наведении курсора мыши на число - состояние снежного покрова и степень покрытия местности в баллах.